[[{"header":{"parameterUnit":"m.s-1","parameterCategory":1,"la1":30.2991,"la2":30.254,"lo1":-89.0895,"lo2":-89.0444,"dx":0.0017,"dy":0.0017,"nx":28,"ny":28,"refTime":"2023-01-27T09:00:00:Z","depth":0,"parameterNumber":2,"parameterNumberName":"U-component_of_WINDS"},"data":[0,0,0,0,0,0,0,0,0,0,0,0,0,0,0,0,0,0,0,0,0,0,0,0,0,0,0,0,0,0,0,0,0,0,0,0,0,0,0,0,0,0,0,0,0,0,0,0,0,0,0,0,0,0,0,0,0,0,-1.6553,-1.6554,0,-1.662,-1.6621,-1.6622,-1.6565,-1.6563,-1.6561,-1.6559,-1.6628,-1.6632,-1.6636,0,0,0,0,0,0,0,0,0,0,0,0,0,-1.6376,-1.638,-1.6553,-1.6554,-1.6555,-1.662,-1.6621,-1.6622,-1.6566,-1.6563,-1.656,-1.6557,-1.6626,-1.6631,-1.6636,0,0,0,0,0,0,0,0,0,0,0,0,0,-1.6449,-1.6381,-1.6553,-1.6535,-1.6534,-1.662,-1.6621,-1.6622,-1.6566,-1.6563,-1.6559,-1.6556,-1.6625,-1.6631,-1.6637,-1.6744,0,0,-1.6655,-1.6658,0,0,0,0,0,0,0,0,-1.6445,-1.6456,-1.6537,-1.6536,-1.6535,-1.6581,-1.6584,-1.6663,-1.6567,-1.6554,-1.6558,-1.6554,-1.6615,-1.6622,-1.6642,-1.6748,-1.6751,-1.6656,-1.6659,-1.6662,-1.6664,0,0,0,0,0,0,0,-1.644,-1.6453,-1.658,-1.6538,-1.6537,-1.6523,-1.653,-1.6599,-1.6604,-1.6555,-1.6551,-1.656,-1.6614,-1.6636,-1.6643,-1.6752,-1.6655,-1.6661,-1.6665,-1.6667,-1.6948,-1.6951,0,0,0,0,0,0,-1.6437,-1.6449,-1.6578,-1.6582,-1.6481,-1.6529,-1.6536,-1.657,-1.6603,-1.6604,-1.6563,-1.6557,-1.6628,-1.6636,-1.6645,-1.6773,-1.6662,-1.6667,-1.6671,-1.6944,-1.6949,-1.6953,0,0,0,0,0,0,-1.6434,-1.6449,-1.6575,-1.6514,-1.6529,-1.6536,-1.6574,-1.6573,-1.6595,-1.6608,-1.6609,-1.6585,-1.6625,-1.6637,-1.672,-1.6775,-1.667,-1.6676,-1.694,-1.6945,-1.6951,-1.703,0,0,0,0,0,0,-1.6429,-1.6448,-1.649,-1.6516,-1.6533,-1.6649,-1.6577,-1.6577,-1.6606,-1.6599,-1.6629,-1.6631,-1.6623,-1.6711,-1.6726,-1.6781,-1.668,-1.6935,-1.6942,-1.6949,-1.7023,-1.7038,-1.7051,0,0,0,0,0,-1.6423,-1.651,-1.6492,-1.6508,-1.6585,-1.6652,-1.6662,-1.6652,-1.661,-1.6652,-1.666,-1.663,-1.6766,-1.672,-1.6736,-1.6794,-1.6931,-1.694,-1.6948,-1.7016,-1.7035,-1.7051,0,0,0,0,0,0,-1.6491,-1.6513,-1.6493,-1.6592,-1.662,-1.6643,-1.6695,-1.6672,-1.6713,-1.6705,-1.669,-1.6697,-1.6785,-1.6797,-1.6746,-1.69,-1.6842,-1.6854,-1.6888,-1.6906,-1.692,-1.6915,-1.6685,0,0,0,0,0,-1.6517,-1.657,-1.6586,-1.6672,-1.6687,-1.6689,-1.6718,-1.6707,-1.6736,-1.6748,-1.6762,-1.6792,-1.6841,-1.6874,-1.692,-1.7024,-1.7029,-1.7072,-1.7086,-1.7097,-1.7108,-1.7163,-1.7182,-1.6981,-1.6981,-1.6981,0,0,-1.6572,-1.6591,-1.6625,-1.6686,-1.6707,-1.6762,-1.6699,-1.676,-1.6801,-1.6757,-1.6837,-1.6848,-1.688,-1.6973,-1.7015,-1.6987,-1.7164,-1.7108,-1.7117,-1.7122,-1.7174,-1.7193,-1.721,-1.6987,-1.6986,-1.6985,0,0,-1.6701,-1.672,-1.6793,-1.6815,-1.6847,-1.6847,-1.6865,-1.689,-1.6896,-1.6975,-1.6943,-1.6991,-1.7077,-1.71,-1.7124,-1.726,-1.7233,-1.7275,-1.7349,-1.7403,-1.7418,-1.7432,-1.748,-1.7498,-1.7286,-1.7286,-1.7286,0,-1.6765,-1.6847,-1.6833,-1.6897,-1.6924,-1.6886,-1.6959,-1.6981,-1.7027,-1.7046,-1.7014,-1.7119,-1.7138,-1.7236,-1.7269,-1.729,-1.7309,-1.7272,-1.7417,-1.7431,-1.7444,-1.749,-1.7508,-1.7291,-1.729,-1.729,-1.7289,0,-1.6925,-1.6982,-1.7036,-1.7081,-1.7114,-1.7182,-1.7178,-1.7214,-1.7199,-1.7203,-1.7283,-1.7304,-1.7353,-1.7376,-1.7363,-1.7472,-1.7453,-1.7419,-1.7361,-1.7468,-1.7511,-1.7528,-1.7298,-1.7296,-1.7295,-1.7293,0,0,-1.71,-1.7134,-1.7155,-1.7174,-1.7206,-1.725,-1.7316,-1.7363,-1.7394,-1.7426,-1.7481,-1.7553,-1.7521,-1.7548,-1.7537,-1.7584,-1.7689,-1.7544,-1.7544,-1.757,-1.781,-1.7836,-1.7856,-1.7672,-1.7675,-1.7678,-1.7807,0,-1.7229,-1.7344,-1.7332,-1.7441,-1.7493,-1.7457,-1.7514,-1.754,-1.7544,-1.7589,-1.7594,-1.7645,-1.76,-1.7615,-1.766,-1.7667,-1.7738,-1.7658,-1.7722,-1.7725,-1.7716,-1.7879,-1.7906,-1.8028,-1.7824,-1.7827,-1.7829,0,-1.7397,-1.7434,-1.7548,-1.7571,-1.7592,-1.7644,-1.7686,-1.7729,-1.7757,-1.7757,-1.7786,-1.7767,-1.7832,-1.7772,-1.7861,-1.7807,-1.7833,-1.784,-1.7844,-1.7851,-1.7784,-1.7889,-1.8066,-1.8085,-1.7855,-1.7853,-1.7851,0,-1.7512,-1.7592,-1.767,-1.7687,-1.7716,-1.7753,-1.7767,-1.7791,-1.782,-1.7857,-1.7875,-1.7919,-1.7944,-1.7978,-1.797,-1.7927,-1.8062,-1.8001,-1.8063,-1.8064,-1.8094,-1.8092,-1.8278,-1.811,-1.811,-1.8109,-1.8109,0,-1.7659,-1.773,-1.7722,-1.777,-1.7848,-1.7834,-1.7911,-1.792,-1.7942,-1.7991,-1.7962,-1.8008,-1.7996,-1.8041,-1.8036,-1.8111,-1.8122,-1.8123,-1.8121,-1.8126,-1.8126,-1.8143,-1.8134,-1.8114,-1.8113,-1.8112,-1.8111,0,-1.7802,-1.7799,-1.7882,-1.7902,-1.7909,-1.7965,-1.7982,-1.8027,-1.8029,-1.8091,-1.8104,-1.8107,-1.8159,-1.8155,-1.8214,-1.821,-1.8302,-1.829,-1.8293,-1.829,-1.8352,-1.8347,-1.8556,-1.8582,-1.8397,-1.8399,-1.8401,0,-1.7896,-1.7949,-1.7975,-1.8005,-1.8021,-1.8071,-1.81,-1.8087,-1.8119,-1.8154,-1.8194,-1.8244,-1.8283,-1.8367,-1.8374,-1.8419,-1.8407,-1.8478,-1.8414,-1.8417,-1.8408,-1.8405,-1.841,-1.849,-1.8492,-1.8494,-1.8496,0,-1.8062,-1.8058,-1.8101,-1.8144,-1.8179,-1.8212,-1.8242,-1.8269,-1.8259,-1.8296,-1.8348,-1.8378,-1.8438,-1.8487,-1.8529,-1.8542,-1.8518,-1.8515,-1.8532,-1.8538,-1.8537,-1.8538,-1.8327,-1.8511,-1.8509,-1.8508,-1.8507,-1.8507,-1.8184,-1.8229,-1.8254,-1.8302,-1.8323,-1.8352,-1.8395,-1.8401,-1.8445,-1.8492,-1.8482,-1.8541,-1.8566,-1.862,-1.8637,-1.8683,-1.8657,-1.8682,-1.8688,-1.8694,-1.8701,-1.853,-1.869,-1.869,-1.869,-1.8689,-1.8689,0,-1.8348,-1.8362,-1.8407,-1.8449,-1.8487,-1.846,-1.8491,-1.8525,-1.8577,-1.8603,-1.8641,-1.8701,-1.8748,-1.8758,-1.8803,-1.8838,-1.8827,-1.885,-1.8847,-1.8851,-1.8722,-1.8703,-1.8858,-1.8857,-1.8857,-1.8857,-1.8857,-1.8857,-1.8439,-1.8514,-1.8513,-1.8598,-1.8611,-1.8668,-1.8688,-1.8714,-1.8734,-1.8802,-1.8841,-1.8847,-1.8866,-1.8912,-1.8954,-1.8955,-1.8973,-1.9,-1.8998,-1.8877,-1.886,-1.8844,-1.8826,-1.9004,-1.9005,-1.9123,-1.9124,-1.9125]},{"header":{"parameterUnit":"m.s-1","parameterCategory":1,"la1":30.2991,"la2":30.254,"lo1":-89.0895,"lo2":-89.0444,"dx":0.0017,"dy":0.0017,"nx":28,"ny":28,"refTime":"2023-01-27T09:00:00:Z","depth":0,"parameterNumber":3,"parameterNumberName":"V-component_of_WINDS"},"data":[0,0,0,0,0,0,0,0,0,0,0,0,0,0,0,0,0,0,0,0,0,0,0,0,0,0,0,0,0,0,0,0,0,0,0,0,0,0,0,0,0,0,0,0,0,0,0,0,0,0,0,0,0,0,0,0,0,0,-3.1914,-3.1915,0,-3.201,-3.2011,-3.2012,-3.1973,-3.1971,-3.1969,-3.1967,-3.2063,-3.2068,-3.2072,0,0,0,0,0,0,0,0,0,0,0,0,0,-3.1693,-3.1698,-3.1914,-3.1915,-3.1916,-3.201,-3.2011,-3.2013,-3.1974,-3.1971,-3.1968,-3.1966,-3.2062,-3.2067,-3.2073,0,0,0,0,0,0,0,0,0,0,0,0,0,-3.1789,-3.1699,-3.1914,-3.1908,-3.1909,-3.201,-3.2011,-3.2013,-3.1974,-3.1971,-3.1968,-3.1964,-3.206,-3.2067,-3.2074,-3.2185,0,0,-3.2095,-3.2098,0,0,0,0,0,0,0,0,-3.1784,-3.1797,-3.1908,-3.1909,-3.1909,-3.1976,-3.1969,-3.2071,-3.1975,-3.1949,-3.1967,-3.1963,-3.2037,-3.2046,-3.2071,-3.2189,-3.2194,-3.2096,-3.21,-3.2103,-3.2105,0,0,0,0,0,0,0,-3.1777,-3.1793,-3.1952,-3.1909,-3.1911,-3.19,-3.191,-3.1988,-3.2011,-3.1951,-3.1949,-3.1961,-3.2037,-3.2064,-3.2073,-3.2195,-3.2096,-3.2102,-3.2106,-3.2109,-3.2408,-3.2412,0,0,0,0,0,0,-3.1771,-3.1788,-3.1949,-3.1955,-3.1837,-3.1907,-3.1918,-3.1958,-3.201,-3.2015,-3.1964,-3.1959,-3.2054,-3.2065,-3.2076,-3.2209,-3.2103,-3.211,-3.2114,-3.2404,-3.2409,-3.2413,0,0,0,0,0,0,-3.1766,-3.1786,-3.1945,-3.1871,-3.189,-3.1914,-3.196,-3.1962,-3.199,-3.2019,-3.2023,-3.1988,-3.2052,-3.2066,-3.2158,-3.2212,-3.2113,-3.2119,-3.24,-3.2406,-3.2411,-3.2477,0,0,0,0,0,0,-3.176,-3.1784,-3.1828,-3.1872,-3.1894,-3.2026,-3.1963,-3.1966,-3.2002,-3.1997,-3.2043,-3.2048,-3.205,-3.2148,-3.2165,-3.222,-3.2125,-3.2395,-3.2403,-3.2409,-3.247,-3.2484,-3.2496,0,0,0,0,0,-3.1752,-3.1842,-3.183,-3.185,-3.1949,-3.2029,-3.2042,-3.2044,-3.2007,-3.205,-3.2069,-3.2046,-3.2203,-3.2158,-3.2177,-3.2235,-3.2392,-3.2401,-3.2409,-3.2464,-3.2481,-3.2496,0,0,0,0,0,0,-3.1803,-3.1848,-3.1835,-3.1942,-3.1982,-3.2023,-3.2077,-3.2062,-3.2114,-3.2106,-3.2106,-3.2117,-3.2211,-3.2232,-3.218,-3.2344,-3.2292,-3.2305,-3.2327,-3.2344,-3.2357,-3.235,-3.213,0,0,0,0,0,-3.1827,-3.1889,-3.1924,-3.2015,-3.2036,-3.2053,-3.2088,-3.2086,-3.2128,-3.2145,-3.217,-3.2211,-3.2269,-3.2308,-3.2363,-3.2473,-3.2482,-3.2522,-3.2535,-3.2545,-3.2556,-3.2615,-3.2633,-3.2441,-3.2441,-3.244,0,0,-3.1876,-3.1908,-3.1948,-3.2026,-3.2057,-3.2121,-3.2068,-3.2138,-3.2185,-3.2155,-3.2243,-3.2263,-3.2308,-3.2409,-3.2455,-3.2429,-3.2611,-3.2556,-3.2564,-3.257,-3.2625,-3.2643,-3.266,-3.2446,-3.2445,-3.2444,0,0,-3.1998,-3.203,-3.2108,-3.214,-3.2188,-3.2199,-3.2218,-3.2261,-3.2273,-3.2362,-3.234,-3.2395,-3.2496,-3.2529,-3.2559,-3.2693,-3.2674,-3.2711,-3.2779,-3.2836,-3.2851,-3.2865,-3.2912,-3.2929,-3.2721,-3.2722,-3.2722,0,-3.2054,-3.215,-3.215,-3.2222,-3.2257,-3.2233,-3.2312,-3.2343,-3.2406,-3.243,-3.2401,-3.2526,-3.2555,-3.2663,-3.2695,-3.272,-3.2741,-3.2706,-3.2849,-3.2862,-3.2875,-3.292,-3.2938,-3.2726,-3.2725,-3.2725,-3.2724,0,-3.2215,-3.2281,-3.2339,-3.2401,-3.2442,-3.2517,-3.2528,-3.257,-3.2564,-3.2577,-3.2667,-3.27,-3.2762,-3.2787,-3.2782,-3.2894,-3.2877,-3.2848,-3.2796,-3.2897,-3.294,-3.2957,-3.2732,-3.273,-3.2729,-3.2728,0,0,-3.2373,-3.2434,-3.2455,-3.2482,-3.2533,-3.2584,-3.2657,-3.2717,-3.2753,-3.2797,-3.2857,-3.2943,-3.2917,-3.2951,-3.2949,-3.2999,-3.3102,-3.2964,-3.2965,-3.2988,-3.3226,-3.3248,-3.3268,-3.3089,-3.3092,-3.3095,-3.3223,0,-3.2499,-3.2628,-3.263,-3.2749,-3.281,-3.2787,-3.2851,-3.2888,-3.2902,-3.2955,-3.297,-3.3031,-3.2992,-3.3012,-3.3061,-3.3079,-3.315,-3.307,-3.3145,-3.3148,-3.3135,-3.329,-3.3313,-3.3431,-3.3239,-3.3242,-3.3244,0,-3.2663,-3.2713,-3.2838,-3.2879,-3.2904,-3.2962,-3.3017,-3.3068,-3.3109,-3.3116,-3.3153,-3.3144,-3.3217,-3.3162,-3.3263,-3.3208,-3.3239,-3.3252,-3.3257,-3.3264,-3.3202,-3.3301,-3.3469,-3.3487,-3.327,-3.3268,-3.3266,0,-3.2766,-3.2864,-3.2951,-3.2975,-3.3025,-3.3065,-3.3088,-3.3126,-3.3162,-3.3209,-3.3233,-3.3288,-3.3319,-3.3361,-3.3367,-3.3326,-3.3468,-3.3413,-3.3475,-3.3475,-3.3506,-3.3504,-3.3681,-3.3526,-3.3525,-3.3525,-3.3525,0,-3.2906,-3.2983,-3.2997,-3.3051,-3.3136,-3.3137,-3.3221,-3.324,-3.3274,-3.333,-3.3313,-3.3366,-3.337,-3.3424,-3.3428,-3.351,-3.3524,-3.3531,-3.3531,-3.3533,-3.3532,-3.3553,-3.3545,-3.353,-3.3529,-3.3528,-3.3527,0,-3.3035,-3.3048,-3.3141,-3.318,-3.3192,-3.3253,-3.3286,-3.3337,-3.3349,-3.342,-3.3436,-3.3456,-3.3518,-3.3527,-3.36,-3.3603,-3.3702,-3.3694,-3.3688,-3.3687,-3.3748,-3.3742,-3.3946,-3.3972,-3.3799,-3.3801,-3.3802,0,-3.3124,-3.3183,-3.3229,-3.3265,-3.329,-3.3349,-3.3386,-3.3389,-3.3427,-3.3478,-3.3522,-3.3583,-3.3632,-3.3733,-3.3753,-3.3808,-3.3801,-3.3868,-3.3809,-3.3808,-3.3802,-3.3798,-3.3804,-3.388,-3.3882,-3.3883,-3.3884,0,-3.3281,-3.3284,-3.3338,-3.3394,-3.3438,-3.3482,-3.3523,-3.3554,-3.3562,-3.3606,-3.367,-3.3708,-3.3782,-3.3843,-3.3898,-3.3919,-3.3904,-3.3903,-3.392,-3.3922,-3.3917,-3.392,-3.3719,-3.3898,-3.3897,-3.3896,-3.3895,-3.3895,-3.3392,-3.3443,-3.3483,-3.3543,-3.3575,-3.3614,-3.3663,-3.3681,-3.3735,-3.3796,-3.3794,-3.3865,-3.3903,-3.3975,-3.4001,-3.4055,-3.4033,-3.4058,-3.4064,-3.407,-3.4076,-3.3908,-3.4065,-3.4064,-3.4064,-3.4064,-3.4063,0,-3.3548,-3.3572,-3.3628,-3.3686,-3.3733,-3.3714,-3.3759,-3.3799,-3.3861,-3.3899,-3.3947,-3.402,-3.4079,-3.4103,-3.416,-3.4198,-3.4192,-3.4213,-3.421,-3.4216,-3.4093,-3.4072,-3.4217,-3.4217,-3.4217,-3.4217,-3.4217,-3.4217,-3.3635,-3.3719,-3.3727,-3.3827,-3.385,-3.392,-3.3947,-3.3982,-3.4012,-3.4094,-3.4143,-3.4158,-3.419,-3.4249,-3.4301,-3.4307,-3.4328,-3.4353,-3.4355,-3.424,-3.4224,-3.4209,-3.419,-3.4357,-3.4357,-3.4473,-3.4474,-3.4475]}]]